[[{"header":{"parameterUnit":"m.s-1","parameterCategory":1,"la1":30.2991,"la2":30.254,"lo1":-89.0895,"lo2":-89.0444,"dy":0.0017,"dx":0.0017,"nx":28,"ny":28,"refTime":"2026-01-10T03:00:00:Z","depth":0,"parameterNumber":2,"parameterNumberName":"U-component_of_WINDS"},"data":[0,0,0,0,0,0,0,0,0,0,0,0,0,0,0,0,0,0,0,0,0,0,0,0,0,0,0,0,0,0,0,0,0,0,0,0,0,0,0,0,0,0,0,0,0,0,0,0,0,0,0,0,0,0,0,0,0,0,2.0484,2.0484,0,2.0514,2.0514,2.0515,2.0493,2.0492,2.0491,2.049,2.0522,2.0524,2.0526,0,0,0,0,0,0,0,0,0,0,0,0,0,2.041,2.0411,2.0484,2.0484,2.0485,2.0514,2.0514,2.0515,2.0493,2.0492,2.0491,2.049,2.0522,2.0524,2.0526,0,0,0,0,0,0,0,0,0,0,0,0,0,2.0441,2.0412,2.0484,2.0477,2.0477,2.0514,2.0514,2.0515,2.0493,2.0492,2.0491,2.0489,2.0521,2.0524,2.0526,2.0571,0,0,2.0534,2.0535,0,0,0,0,0,0,0,0,2.0439,2.0444,2.0478,2.0478,2.0478,2.0498,2.05,2.0534,2.0494,2.0487,2.049,2.0488,2.0516,2.0519,2.0527,2.0573,2.0574,2.0534,2.0536,2.0537,2.0538,0,0,0,0,0,0,0,2.0437,2.0442,2.0496,2.0479,2.0478,2.0474,2.0477,2.0506,2.0509,2.0488,2.0486,2.049,2.0515,2.0525,2.0528,2.0575,2.0534,2.0537,2.0538,2.0539,2.066,2.0661,0,0,0,0,0,0,2.0435,2.0441,2.0495,2.0497,2.0455,2.0476,2.0479,2.0493,2.0509,2.051,2.0491,2.0489,2.0521,2.0525,2.0529,2.0584,2.0537,2.054,2.0541,2.0658,2.066,2.0662,0,0,0,0,0,0,2.0434,2.044,2.0494,2.0468,2.0475,2.0479,2.0495,2.0495,2.0504,2.0511,2.0512,2.0501,2.052,2.0525,2.0561,2.0584,2.0541,2.0543,2.0656,2.0659,2.0661,2.0693,0,0,0,0,0,0,2.0432,2.044,2.0457,2.0469,2.0476,2.0525,2.0496,2.0496,2.0509,2.0506,2.052,2.0521,2.0519,2.0557,2.0564,2.0587,2.0545,2.0654,2.0658,2.066,2.069,2.0696,2.0701,0,0,0,0,0,2.0429,2.0464,2.0458,2.0464,2.0497,2.0526,2.053,2.0527,2.0511,2.0528,2.0533,2.0521,2.0581,2.0561,2.0568,2.0593,2.0653,2.0657,2.066,2.0687,2.0695,2.0701,0,0,0,0,0,0,2.0455,2.0466,2.0458,2.0498,2.0512,2.0522,2.0544,2.0535,2.0554,2.055,2.0546,2.0549,2.0587,2.0594,2.0571,2.0638,2.0614,2.062,2.0632,2.064,2.0645,2.0643,2.0547,0,0,0,0,0,2.0465,2.0487,2.0496,2.0531,2.0537,2.054,2.0552,2.0549,2.0562,2.0568,2.0575,2.0589,2.0611,2.0626,2.0646,2.0691,2.0694,2.0711,2.0717,2.0722,2.0726,2.0751,2.0759,2.0674,2.0674,2.0674,0,0,2.0487,2.0495,2.051,2.0536,2.0546,2.0569,2.0544,2.057,2.0588,2.0572,2.0606,2.0612,2.0628,2.0668,2.0686,2.0675,2.0751,2.0726,2.073,2.0732,2.0756,2.0764,2.0771,2.0677,2.0676,2.0676,0,0,2.0538,2.0547,2.0577,2.0587,2.0602,2.0604,2.0611,2.0624,2.0627,2.0661,2.065,2.0671,2.0709,2.0721,2.0732,2.0789,2.0779,2.0796,2.0826,2.0851,2.0857,2.0863,2.0884,2.0892,2.08,2.08,2.08,0,2.0563,2.0598,2.0593,2.0621,2.0633,2.0619,2.065,2.0661,2.0682,2.0691,2.0677,2.0725,2.0735,2.0778,2.0792,2.0801,2.081,2.0794,2.0857,2.0862,2.0868,2.0888,2.0896,2.0802,2.0802,2.0802,2.0802,0,2.0628,2.0653,2.0675,2.0696,2.0711,2.074,2.0741,2.0756,2.0752,2.0755,2.0791,2.0802,2.0825,2.0835,2.083,2.0878,2.087,2.0857,2.0833,2.0878,2.0897,2.0904,2.0805,2.0804,2.0804,2.0803,0,0,2.0696,2.0715,2.0723,2.0733,2.0749,2.0768,2.0797,2.0819,2.0833,2.0849,2.0873,2.0906,2.0894,2.0906,2.0904,2.0925,2.097,2.0909,2.0909,2.092,2.1024,2.1034,2.1043,2.0964,2.0965,2.0966,2.1023,0,2.0748,2.0798,2.0796,2.0843,2.0866,2.0854,2.0879,2.0892,2.0896,2.0917,2.0921,2.0945,2.0927,2.0934,2.0955,2.096,2.0991,2.0956,2.0987,2.0988,2.0984,2.1053,2.1064,2.1116,2.103,2.1031,2.1032,0,2.0816,2.0834,2.0883,2.0897,2.0907,2.0929,2.095,2.097,2.0985,2.0986,2.1001,2.0995,2.1025,2.1,2.1042,2.1018,2.1031,2.1036,2.1038,2.1041,2.1013,2.1058,2.1133,2.1141,2.1044,2.1043,2.1042,0,2.0861,2.0897,2.0932,2.0941,2.0957,2.0974,2.0982,2.0995,2.1009,2.1028,2.1037,2.1059,2.1071,2.1088,2.1088,2.107,2.1131,2.1106,2.1133,2.1134,2.1147,2.1146,2.1225,2.1155,2.1155,2.1154,2.1154,0,2.092,2.0951,2.0953,2.0974,2.1008,2.1006,2.104,2.1046,2.1059,2.1081,2.1072,2.1094,2.1093,2.1115,2.1116,2.1151,2.1156,2.1159,2.1158,2.116,2.1159,2.1168,2.1164,2.1156,2.1156,2.1156,2.1155,0,2.0976,2.0978,2.1015,2.1028,2.1032,2.1057,2.1069,2.1089,2.1093,2.1122,2.1129,2.1134,2.116,2.1162,2.1192,2.1192,2.1235,2.1231,2.123,2.1229,2.1256,2.1254,2.1344,2.1356,2.1278,2.1278,2.1279,0,2.1013,2.1037,2.1053,2.1067,2.1076,2.11,2.1114,2.1113,2.1128,2.1148,2.1166,2.1191,2.1211,2.1253,2.126,2.1283,2.1279,2.1309,2.1283,2.1283,2.128,2.1279,2.1282,2.1315,2.1315,2.1316,2.1317,0,2.108,2.108,2.1101,2.1123,2.114,2.1157,2.1173,2.1186,2.1187,2.1205,2.1231,2.1246,2.1277,2.1302,2.1325,2.1334,2.1326,2.1325,2.1333,2.1334,2.1333,2.1334,2.1244,2.1323,2.1322,2.1322,2.1322,2.1321,2.1128,2.1148,2.1163,2.1187,2.1199,2.1215,2.1235,2.1241,2.1263,2.1288,2.1286,2.1315,2.1331,2.1361,2.1371,2.1394,2.1384,2.1395,2.1398,2.1401,2.1404,2.1329,2.1398,2.1398,2.1398,2.1398,2.1398,0,2.1194,2.1203,2.1225,2.1248,2.1267,2.1258,2.1276,2.1292,2.1318,2.1333,2.1353,2.1384,2.1409,2.1418,2.1442,2.1459,2.1456,2.1466,2.1464,2.1467,2.1411,2.1402,2.1468,2.1468,2.1468,2.1468,2.1468,2.1468,2.1231,2.1265,2.1268,2.1309,2.1318,2.1346,2.1357,2.1372,2.1384,2.1419,2.1439,2.1445,2.1458,2.1483,2.1506,2.1508,2.1518,2.1529,2.1529,2.1477,2.147,2.1464,2.1455,2.1531,2.1531,2.1583,2.1583,2.1584]},{"header":{"parameterUnit":"m.s-1","parameterCategory":1,"la1":30.2991,"la2":30.254,"lo1":-89.0895,"lo2":-89.0444,"dy":0.0017,"dx":0.0017,"nx":28,"ny":28,"refTime":"2026-01-10T03:00:00:Z","depth":0,"parameterNumber":3,"parameterNumberName":"V-component_of_WINDS"},"data":[0,0,0,0,0,0,0,0,0,0,0,0,0,0,0,0,0,0,0,0,0,0,0,0,0,0,0,0,0,0,0,0,0,0,0,0,0,0,0,0,0,0,0,0,0,0,0,0,0,0,0,0,0,0,0,0,0,0,4.8355,4.8357,0,4.8569,4.8572,4.8574,4.8619,4.8617,4.8615,4.8614,4.8838,4.8845,4.8853,0,0,0,0,0,0,0,0,0,0,0,0,0,4.7991,4.7997,4.8355,4.8357,4.836,4.8569,4.8572,4.8575,4.8619,4.8617,4.8615,4.8613,4.8836,4.8844,4.8853,0,0,0,0,0,0,0,0,0,0,0,0,0,4.8171,4.7999,4.8354,4.8407,4.8414,4.8568,4.8572,4.8575,4.8619,4.8617,4.8614,4.8612,4.8833,4.8844,4.8855,4.8973,0,0,4.8889,4.8894,0,0,0,0,0,0,0,0,4.8161,4.8185,4.8397,4.8404,4.8412,4.8565,4.8526,4.8709,4.862,4.8542,4.8614,4.8611,4.8749,4.8767,4.8813,4.8983,4.8993,4.889,4.8897,4.8902,4.8905,0,0,0,0,0,0,0,4.8149,4.8176,4.844,4.84,4.8409,4.8423,4.8446,4.8561,4.8657,4.8548,4.8552,4.8576,4.8753,4.8802,4.8819,4.8996,4.889,4.89,4.8907,4.8911,4.9278,4.9281,0,0,0,0,0,0,4.8126,4.8165,4.8433,4.8446,4.8278,4.8431,4.8457,4.8518,4.8655,4.8674,4.8578,4.8578,4.8784,4.8805,4.8827,4.8977,4.8902,4.8912,4.8918,4.9275,4.9279,4.9282,0,0,0,0,0,0,4.8118,4.8149,4.8424,4.8307,4.8343,4.844,4.8508,4.8524,4.8573,4.8678,4.8696,4.861,4.8783,4.8811,4.8937,4.8985,4.8917,4.8927,4.9272,4.9277,4.9281,4.9277,0,0,0,0,0,0,4.8107,4.8146,4.819,4.8307,4.8349,4.8529,4.8511,4.853,4.8591,4.8593,4.8713,4.8731,4.8783,4.892,4.8948,4.9,4.8936,4.9268,4.9274,4.9279,4.9273,4.928,4.9287,0,0,0,0,0,4.8094,4.8181,4.8192,4.8224,4.8406,4.8531,4.8555,4.8613,4.8595,4.8642,4.871,4.8727,4.8975,4.8932,4.8964,4.902,4.9265,4.9272,4.9279,4.927,4.9279,4.9287,0,0,0,0,0,0,4.8068,4.8197,4.8211,4.8338,4.8423,4.8538,4.8599,4.862,4.8713,4.8711,4.878,4.8807,4.8929,4.8987,4.8937,4.9144,4.912,4.9133,4.9102,4.9111,4.9118,4.9103,4.8945,0,0,0,0,0,4.8076,4.8165,4.8274,4.8376,4.8418,4.8501,4.8557,4.8594,4.8686,4.8723,4.8801,4.8891,4.899,4.9053,4.915,4.9281,4.931,4.9335,4.9342,4.9348,4.9359,4.9437,4.9451,4.9305,4.9305,4.9305,0,0,4.8095,4.8177,4.8229,4.8372,4.8443,4.8537,4.8531,4.8629,4.8701,4.8739,4.8863,4.8923,4.9028,4.9158,4.9219,4.921,4.9406,4.9356,4.936,4.9369,4.9446,4.946,4.9472,4.9309,4.9309,4.9308,0,0,4.8179,4.8248,4.8342,4.8413,4.852,4.8575,4.8597,4.871,4.8752,4.8877,4.8908,4.8995,4.9162,4.9238,4.9297,4.9412,4.9433,4.9442,4.9479,4.9555,4.9566,4.9577,4.9621,4.9636,4.9453,4.9453,4.9453,0,4.819,4.833,4.8388,4.8486,4.855,4.8587,4.8685,4.8752,4.8885,4.8929,4.8916,4.913,4.9203,4.9353,4.9381,4.9427,4.9458,4.9429,4.9559,4.9571,4.9582,4.9625,4.9641,4.9453,4.9453,4.9453,4.9453,0,4.8341,4.8438,4.8501,4.8629,4.8699,4.8796,4.8871,4.8936,4.8967,4.9024,4.9154,4.9243,4.936,4.9398,4.9429,4.9554,4.9546,4.9545,4.9523,4.9595,4.9637,4.9654,4.9454,4.9454,4.9454,4.9453,0,0,4.8414,4.8572,4.8595,4.8655,4.8777,4.8854,4.8954,4.9068,4.9124,4.9215,4.9304,4.9445,4.9447,4.9515,4.9555,4.9621,4.9711,4.9613,4.9617,4.9631,4.9859,4.986,4.9878,4.9724,4.9728,4.973,4.9851,0,4.8514,4.8693,4.8749,4.89,4.8993,4.9031,4.9119,4.9205,4.9261,4.935,4.9414,4.9515,4.9507,4.9549,4.9615,4.9686,4.9758,4.9677,4.9811,4.9815,4.9786,4.99,4.9901,5.001,4.9867,4.987,4.9872,0,4.8656,4.8749,4.8909,4.9022,4.9063,4.9141,4.9251,4.9334,4.9434,4.9471,4.9548,4.9584,4.9693,4.9663,4.9817,4.9761,4.9819,4.9863,4.9868,4.9885,4.985,4.9923,5.0046,5.0064,4.9898,4.9896,4.9894,0,4.8697,4.8863,4.8981,4.9031,4.9164,4.9219,4.9277,4.9374,4.944,4.9537,4.9581,4.9689,4.975,4.9834,4.99,4.9871,5.005,5.0024,5.0087,5.0085,5.0125,5.0122,5.0262,5.0156,5.0156,5.0156,5.0156,0,4.8806,4.8903,4.9002,4.9075,4.9186,4.925,4.936,4.942,4.9507,4.9594,4.9634,4.9716,4.9796,4.9889,4.9941,5.0063,5.0089,5.0125,5.0138,5.0123,5.0119,5.0164,5.016,5.016,5.0159,5.0158,5.0158,0,4.8872,4.8941,4.9073,4.9189,4.9221,4.9298,4.9399,4.9473,4.9531,4.9642,4.9672,4.9765,4.9877,4.995,5.0093,5.0128,5.0263,5.0272,5.0229,5.0236,5.0296,5.0291,5.0473,5.0502,5.0373,5.0375,5.0375,0,4.8938,4.9013,4.9138,4.9199,4.9258,4.9355,4.9423,4.949,4.9559,4.9679,4.974,4.9854,4.995,5.0128,5.021,5.0321,5.0336,5.0392,5.0353,5.0336,5.0341,5.0337,5.0347,5.0399,5.04,5.0401,5.0401,0,4.9049,4.908,4.9175,4.9283,4.9362,4.9451,4.954,4.9588,4.9671,4.9747,4.9862,4.9936,5.0083,5.0198,5.0316,5.038,5.0406,5.0413,5.0434,5.0421,5.0394,5.0413,5.025,5.0409,5.0408,5.0408,5.0407,5.0407,4.9119,4.919,4.9289,4.9395,4.9469,4.9551,4.9628,4.9696,4.9792,4.9916,4.995,5.0071,5.0173,5.0334,5.04,5.0498,5.0492,5.0521,5.0529,5.0536,5.0539,5.0376,5.0519,5.0519,5.0519,5.0519,5.0519,0,4.9236,4.9302,4.9398,4.9521,4.9605,4.962,4.972,4.979,4.9896,4.9987,5.008,5.0214,5.0327,5.0417,5.0534,5.0595,5.0611,5.0624,5.0622,5.0637,5.0536,5.0508,5.061,5.061,5.061,5.061,5.061,5.061,4.9306,4.9427,4.9471,4.9631,4.9697,4.9815,4.9871,4.9949,5.0023,5.017,5.0263,5.0321,5.0414,5.0538,5.0643,5.0667,5.071,5.0721,5.0748,5.0653,5.0643,5.0634,5.0608,5.0729,5.0729,5.0842,5.0843,5.0843]}]]